Weather History for Wolf Point, MT

Change the Weather History Date:

Thursday, August 1, 2013

  Actual Average Record
Temperature  
Mean Temperature 64 °F -  
Max Temperature 81 °F 88 °F 102 °F (2008)
Min Temperature 46 °F 56 °F 46 °F (1999)
Degree Days  
Heating Degree Days 1    
Cooling Degree Days 0    
Growing Degree Days 14 (Base 50)    
Moisture  
Dew Point 49 °F    
Average Humidity 59    
Maximum Humidity 93    
Minimum Humidity 32    
Precipitation  
Precipitation 0.00 in 0.05 in 0.28 in (2004)
Month to date precipitation 0.00 0.05  
Year to date precipitation 10.01 8.44  
Sea Level Pressure  
Sea Level Pressure 30.03 in    
Wind  
Wind Speed 3 mph (ENE)    
Max Wind Speed 13 mph    
Max Gust Speed -    
Visibility 10 miles    
Events      
T = Trace of Precipitation, MM = Missing Value Source: NWS Daily Summary

Daily Weather History Graph

Daily Weather History Graph

Search for Another Location

Airport:

Trip Planner

Search our weather history database for the weather conditions in past years. The results will help you decide how hot, cold, wet, or windy it might be!

Date:

Astronomy

Aug. 01, 2013 Rise Set
Actual Time 5:38 AM MDT 8:37 PM MDT
Civil Twilight 5:02 AM MDT 9:14 PM MDT
Nautical Twilight 4:14 AM MDT 10:00 PM MDT
Astronomical Twilight 3:17 AM MDT 10:57 PM MDT
Moon 1:14 AM MDT (8/1) 4:52 PM MDT (8/1)
Length of Visible Light 16h 12m
Length of Day
14h 59m
Waning Crescent, 23% of the Moon is Illuminated
Aug 1
Waning Crescent
Aug 6
New
Aug 14
First Quarter
Aug 20
Full
Aug 28
Last Quarter

Hourly Weather History & Observations

Time (MDT) Temp. Dew Point Humidity Pressure Visibility Wind Dir Wind Speed Gust Speed Precip Events Conditions
12:53 AM 53.1 °F 48.0 °F 83% 30.10 in 10.0 mi NW 3.5 mph - N/A   Clear
1:53 AM 52.0 °F 46.9 °F 83% 30.10 in 10.0 mi Calm Calm - N/A   Clear
2:53 AM 52.0 °F 46.0 °F 80% 30.08 in 10.0 mi Calm Calm - N/A   Clear
3:53 AM 50.0 °F 46.0 °F 86% 30.08 in 10.0 mi Calm Calm - N/A   Clear
4:53 AM 46.9 °F 45.0 °F 93% 30.08 in 10.0 mi Calm Calm - N/A   Clear
5:53 AM 48.9 °F 45.0 °F 86% 30.09 in 10.0 mi Calm Calm - N/A   Clear
6:53 AM 51.1 °F 46.0 °F 83% 30.08 in 10.0 mi Calm Calm - N/A   Clear
7:53 AM 57.0 °F 48.9 °F 74% 30.08 in 10.0 mi Calm Calm - N/A   Clear
8:53 AM 64.0 °F 48.9 °F 58% 30.07 in 10.0 mi ESE 3.5 mph - N/A   Clear
9:53 AM 70.0 °F 46.9 °F 44% 30.07 in 10.0 mi ENE 4.6 mph - N/A   Clear
10:53 AM 73.9 °F 48.0 °F 40% 30.06 in 10.0 mi East 4.6 mph - N/A   Clear
11:53 AM 77.0 °F 46.0 °F 33% 30.04 in 10.0 mi East 8.1 mph - N/A   Clear
12:53 PM 77.0 °F 46.0 °F 33% 30.03 in 10.0 mi East 9.2 mph - N/A   Clear
1:53 PM 78.1 °F 48.9 °F 36% 30.02 in 10.0 mi Variable 4.6 mph - N/A   Clear
2:53 PM 80.1 °F 48.0 °F 32% 30.01 in 10.0 mi Variable 6.9 mph - N/A   Scattered Clouds
3:53 PM 79.0 °F 48.0 °F 34% 30.00 in 10.0 mi ENE 4.6 mph - N/A   Partly Cloudy
4:53 PM 81.0 °F 48.9 °F 33% 29.98 in 10.0 mi East 9.2 mph - N/A   Mostly Cloudy
5:53 PM 79.0 °F 50.0 °F 36% 29.98 in 10.0 mi NE 8.1 mph - N/A   Mostly Cloudy
6:53 PM 77.0 °F 51.1 °F 40% 29.96 in 10.0 mi East 12.7 mph - N/A   Clear
7:53 PM 73.0 °F 54.0 °F 51% 29.97 in 10.0 mi East 9.2 mph - N/A   Clear
8:53 PM 69.1 °F 54.0 °F 58% 29.96 in 10.0 mi ENE 8.1 mph - N/A   Clear
9:53 PM 64.0 °F 53.1 °F 67% 29.99 in 10.0 mi NE 5.8 mph - N/A   Clear
10:53 PM 62.1 °F 53.1 °F 72% 30.02 in 10.0 mi Calm Calm - N/A   Clear
11:53 PM 62.1 °F 53.1 °F 72% 29.97 in 10.0 mi East 9.2 mph - N/A   Clear